Wind_Speed
18 18 18 18 18 16 15 14 13 12 10 10 9 9 9 8 8 8 8 8 8 8 8 8 8 8 8 8 8 8 8 9 9 9 9 9 9 9 9 9 10 10 10
19 20 20 19 19 18 17 16 15 14 13 12 11 10 10 10 10 10 10 10 10 10 9 9 9 9 9 9 9 9 9 9 10 10 10 10 10 10 10 11 11 11 11
20 20 20 20 20 19 19 18 17 16 15 14 13 12 12 12 12 11 11 11 11 11 11 10 10 10 11 10 10 10 11 11 11 12 12 12 12 12 12 12 12 13 13
22 22 22 22 21 20 21 21 19 18 17 16 16 15 14 13 13 13 13 12 12 13 12 12 12 12 12 12 12 12 12 13 13 13 13 13 13 13 13 13 13 14 14
24 24 23 23 23 22 22 22 21 20 19 18 17 16 15 15 14 14 14 14 13 13 13 13 13 13 13 13 13 13 13 13 13 13 14 14 14 14 14 15 15 15 15
27 26 25 25 25 24 24 23 23 22 21 20 19 18 17 16 15 15 14 14 14 14 14 14 15 14 14 14 14 14 14 15 15 15 15 15 15 15 15 16 16 17 17
28 27 27 27 27 26 25 25 24 24 23 22 21 19 18 17 16 16 16 15 15 16 16 16 16 16 16 16 16 16 16 16 16 16 16 16 16 16 17 17 18 18 18
29 30 29 29 28 28 27 26 26 25 25 24 22 21 20 19 18 18 17 17 16 17 17 17 17 17 17 17 17 17 17 17 17 17 18 18 18 18 19 19 19 19 19
30 31 31 31 30 30 29 28 27 26 26 25 24 23 22 21 20 19 19 18 18 18 18 18 18 18 18 18 18 18 18 18 18 18 19 19 19 20 20 20 20 20 20
30 31 32 32 32 32 31 29 28 27 27 26 26 25 24 23 22 21 20 20 20 20 20 19 19 19 19 19 19 20 20 20 20 20 20 21 21 21 21 22 22 22 22
31 31 32 33 34 33 32 30 29 29 28 28 27 27 26 25 24 23 22 22 21 21 21 21 21 21 21 21 21 22 22 22 22 22 22 22 23 23 23 23 23 23 23
31 31 32 34 35 34 33 32 31 31 29 29 29 29 28 26 26 25 25 24 24 23 23 23 23 23 23 24 24 24 24 24 24 24 24 24 24 24 24 24 24 24 24
32 32 33 34 35 34 34 34 33 32 30 30 30 29 29 28 27 27 27 27 26 25 25 25 26 26 26 26 26 27 26 26 26 26 26 26 26 26 26 26 26 26 26
32 33 34 34 35 35 35 35 34 33 32 30 30 30 31 30 30 29 29 29 28 28 27 27 28 28 28 28 28 29 29 28 28 28 28 28 28 28 28 28 28 28 28
31 34 36 36 35 35 36 36 35 36 35 33 32 32 32 32 31 31 30 30 30 30 30 30 30 30 31 31 30 30 30 30 30 30 30 30 30 30 30 30 30 30 30
31 33 36 37 37 37 36 36 37 37 36 35 34 33 33 33 32 33 32 32 32 32 33 33 33 33 33 32 32 32 32 32 31 31 32 33 33 33 33 33 33 33 33
32 33 35 36 36 37 37 36 36 36 35 34 33 32 33 33 33 34 34 34 33 34 34 35 35 34 33 33 33 33 34 34 33 34 34 34 34 34 34 35 35 35 35
32 34 34 34 36 37 37 36 37 36 37 35 35 34 34 34 34 35 35 35 35 35 35 35 36 36 35 35 34 35 35 35 35 36 36 36 36 36 36 36 36 36 37
30 32 33 33 35 35 36 35 36 37 36 35 34 34 35 35 35 35 35 36 36 36 36 37 37 37 37 37 36 37 37 37 37 37 36 36 36 36 36 36 37 38 38
30 31 31 32 33 35 36 36 36 35 35 35 35 34 34 35 36 36 36 36 38 38 38 38 38 38 39 39 39 38 38 37 37 37 38 38 37 37 38 38 39 39 40
28 30 30 30 32 34 34 35 34 36 36 36 35 35 35 36 37 37 37 37 38 39 39 39 39 39 39 40 40 39 39 38 38 38 38 39 39 39 39 39 39 40 40
26 27 29 29 31 32 35 35 34 36 36 36 35 34 35 36 37 38 38 39 39 39 39 40 40 40 40 39 39 39 39 39 39 39 39 40 40 41 41 41 41 41 41
26 27 29 30 30 32 35 36 35 36 36 35 35 35 35 35 37 39 40 40 40 40 40 40 40 40 39 39 39 39 39 39 39 39 40 41 42 42 42 42 42 42 43
26 27 29 29 30 32 34 35 36 36 36 36 35 35 35 36 37 39 40 40 40 40 39 39 39 40 39 38 38 39 39 39 39 40 41 42 42 43 43 43 43 43 44
26 27 28 29 29 31 33 34 36 37 36 35 36 36 36 37 37 38 40 41 41 40 40 40 40 41 40 39 40 40 40 40 39 40 41 42 42 43 45 45 45 45 44
25 27 28 29 30 31 33 35 36 36 36 36 36 37 37 37 37 38 40 40 40 40 41 41 41 41 42 42 42 43 43 43 42 43 43 43 43 44 45 45 45 46 46
Wind_Direction
246 241 237 236 237 237 234 232 230 229 230 230 231 238 243 248 253 258 260 263 266 267 269 271 274 275 278 282 284 285 286 288 291 293 293 293 292 290 290 290 290 291 292
247 243 239 239 238 239 235 233 234 233 234 235 237 240 245 249 253 257 261 264 266 268 269 272 274 274 277 281 282 285 287 289 290 291 291 290 289 289 289 289 289 289 290
247 245 242 241 241 237 235 234 236 236 237 239 241 243 246 249 252 256 261 264 265 267 269 273 276 278 279 280 282 285 287 288 289 289 289 288 287 287 288 288 288 288 288
247 245 243 241 239 238 239 239 239 239 240 241 243 244 247 250 253 256 259 262 265 266 267 270 275 277 278 279 281 284 285 285 285 286 287 287 287 287 287 287 287 288 288
247 245 242 240 237 239 240 241 242 241 241 242 243 245 247 249 252 255 258 261 264 265 266 268 272 275 277 279 280 282 284 285 285 285 285 286 285 286 287 287 288 288 288
247 245 241 239 238 238 240 241 242 242 242 243 245 246 247 250 252 254 256 258 261 263 265 267 270 272 276 278 279 280 281 283 283 283 283 284 284 286 286 286 287 288 288
248 244 241 241 239 239 239 240 240 242 242 244 245 246 247 249 252 254 255 258 260 263 266 269 270 271 273 276 279 280 280 281 281 281 281 282 283 284 286 287 288 288 288
249 246 243 241 240 239 238 239 240 241 242 243 244 246 248 249 251 253 256 258 260 263 266 268 269 270 271 273 277 279 280 281 281 281 281 280 281 283 285 286 287 288 288
250 247 244 241 239 238 237 238 239 240 242 242 243 245 247 249 251 252 254 257 260 263 265 267 267 269 270 272 275 278 280 281 282 282 282 281 281 282 284 285 286 286 286
250 246 243 238 236 235 235 236 237 238 240 241 242 244 247 249 251 252 254 256 259 263 266 267 267 268 270 272 275 277 279 280 281 282 282 281 281 282 282 283 284 285 285
249 244 241 237 234 233 233 235 236 237 238 240 242 244 246 248 251 252 254 256 259 262 265 267 269 270 270 272 275 276 278 280 281 281 282 281 281 281 282 282 283 284 285
246 243 239 236 234 233 234 235 236 237 238 239 242 244 246 248 250 252 254 256 258 260 263 266 268 270 271 272 274 276 278 279 279 280 280 281 281 281 282 282 283 284 285
244 241 238 236 234 233 234 234 235 237 238 239 240 243 246 248 250 252 254 256 257 260 263 266 268 269 270 272 274 276 278 278 278 278 278 279 279 280 282 282 283 283 284
244 239 236 235 234 232 231 232 233 235 237 239 241 244 246 248 251 253 255 255 257 259 262 265 267 269 270 273 275 276 277 277 278 277 277 278 278 279 280 281 282 282 282
243 237 235 234 233 233 232 233 234 236 239 241 242 244 247 249 251 253 255 256 257 259 262 264 267 267 270 272 273 275 276 277 277 276 276 277 278 278 279 279 280 281 281
243 239 236 234 234 234 234 233 234 237 239 241 244 246 248 249 251 253 255 257 259 260 261 262 265 266 268 270 272 273 275 275 276 275 276 277 277 278 278 279 280 280 280
246 242 237 234 233 234 234 235 236 237 239 243 245 246 248 250 252 255 256 258 260 261 261 262 263 265 266 268 270 272 274 275 275 275 276 277 277 278 278 278 278 279 279
248 241 237 235 233 234 236 237 238 239 242 246 247 247 249 251 253 255 257 259 261 261 262 262 263 264 265 268 271 273 274 274 274 275 276 276 277 277 278 278 278 278 279
245 238 238 237 235 235 237 239 240 241 244 246 249 248 250 251 254 256 259 261 261 262 263 263 263 263 265 267 270 273 273 274 275 275 275 276 277 277 278 278 278 278 278
244 239 239 238 238 239 239 243 244 244 246 247 249 250 251 253 255 257 259 260 261 263 263 264 264 264 265 267 269 271 272 273 275 275 276 276 277 277 278 278 279 279 279
246 242 240 240 240 241 242 244 245 244 245 247 250 252 252 254 256 258 258 259 262 263 262 263 264 266 267 267 268 270 272 272 273 275 276 277 277 278 279 279 279 279 280
250 246 243 244 244 243 244 246 245 245 246 251 252 254 254 256 257 258 259 260 262 263 264 264 265 266 268 268 268 270 272 272 273 275 276 277 277 278 279 279 279 280 280
255 251 248 247 248 247 246 246 246 245 248 252 252 254 256 257 258 259 260 262 263 264 264 265 266 266 267 267 267 269 271 270 272 274 276 277 278 278 279 279 280 280 281
256 253 250 250 252 249 246 247 248 248 250 254 256 257 259 260 260 260 261 261 264 266 266 266 266 268 268 267 267 269 271 271 272 273 275 276 277 278 279 279 279 280 280
257 255 254 255 255 251 249 249 249 250 251 256 259 260 261 261 262 261 261 262 264 266 267 268 268 269 269 269 269 269 271 273 274 275 276 277 277 278 278 278 279 279 279
260 258 257 256 255 254 252 250 250 252 253 256 259 263 262 263 263 264 264 264 264 265 267 268 269 269 270 270 270 271 272 274 275 276 277 278 278 278 279 279 279 279 279
Height
5843 5844 5846 5847 5849 5850 5852 5853 5855 5856 5857 5858 5859 5860 5861 5862 5863 5863 5864 5865 5866 5866 5867 5867 5868 5868 5869 5869 5870 5870 5870 5870 5870 5870 5870 5870 5869 5869 5869 5869 5869 5869 5868
5840 5841 5842 5844 5846 5847 5849 5851 5852 5853 5854 5856 5857 5858 5859 5860 5861 5862 5862 5863 5864 5865 5865 5866 5866 5867 5867 5867 5868 5868 5868 5868 5868 5868 5868 5868 5868 5868 5867 5867 5867 5867 5867
5836 5837 5839 5840 5842 5844 5846 5847 5849 5850 5852 5853 5854 5855 5856 5858 5859 5860 5860 5861 5862 5863 5863 5864 5864 5865 5865 5865 5866 5866 5866 5866 5866 5866 5866 5866 5866 5866 5865 5865 5865 5865 5864
5832 5833 5835 5836 5838 5840 5842 5844 5846 5847 5848 5850 5851 5852 5854 5855 5856 5857 5858 5859 5859 5860 5861 5862 5862 5863 5863 5863 5864 5864 5864 5864 5864 5864 5864 5864 5864 5863 5863 5863 5863 5862 5862
5827 5828 5830 5832 5834 5836 5838 5840 5842 5843 5845 5846 5848 5849 5850 5851 5853 5854 5855 5856 5857 5858 5858 5859 5860 5860 5860 5861 5861 5861 5861 5861 5861 5861 5861 5861 5861 5861 5861 5860 5860 5860 5859
5821 5823 5825 5827 5829 5831 5834 5836 5837 5839 5841 5843 5844 5845 5847 5848 5849 5851 5852 5853 5854 5855 5855 5856 5857 5857 5858 5858 5858 5858 5859 5859 5858 5858 5858 5858 5858 5858 5858 5857 5857 5857 5856
5816 5817 5819 5822 5824 5826 5829 5831 5833 5835 5837 5838 5840 5842 5843 5844 5846 5847 5849 5850 5851 5852 5852 5853 5854 5854 5855 5855 5855 5855 5855 5855 5855 5855 5855 5855 5855 5855 5854 5854 5854 5853 5853
5809 5811 5813 5816 5818 5821 5823 5825 5828 5830 5832 5834 5836 5837 5839 5840 5842 5843 5845 5846 5847 5848 5849 5849 5850 5851 5851 5852 5852 5852 5852 5852 5852 5852 5851 5851 5851 5851 5851 5850 5850 5850 5849
5802 5804 5807 5809 5812 5815 5817 5820 5822 5824 5827 5829 5831 5833 5834 5836 5838 5839 5841 5842 5843 5844 5845 5846 5846 5847 5847 5848 5848 5848 5848 5848 5848 5848 5848 5847 5847 5847 5847 5846 5846 5846 5845
5794 5797 5799 5802 5805 5808 5811 5814 5816 5819 5821 5823 5826 5828 5830 5831 5833 5835 5836 5838 5839 5840 5841 5841 5842 5843 5843 5844 5844 5844 5844 5844 5844 5844 5844 5843 5843 5843 5842 5842 5841 5841 5841
5786 5789 5792 5794 5798 5801 5804 5807 5810 5812 5815 5817 5820 5822 5824 5826 5828 5830 5831 5833 5834 5835 5836 5837 5838 5838 5839 5839 5840 5840 5840 5840 5840 5839 5839 5839 5838 5838 5837 5837 5837 5836 5836
5777 5780 5783 5786 5790 5794 5797 5800 5803 5805 5808 5811 5814 5816 5819 5821 5823 5824 5826 5828 5829 5830 5831 5832 5833 5834 5834 5835 5835 5835 5835 5835 5835 5835 5834 5834 5834 5833 5833 5832 5832 5831 5831
5769 5772 5775 5778 5782 5786 5790 5793 5796 5798 5801 5804 5807 5810 5813 5815 5817 5818 5820 5822 5823 5825 5826 5827 5827 5828 5829 5829 5829 5830 5830 5830 5829 5829 5829 5829 5828 5828 5827 5827 5826 5826 5825
5760 5763 5767 5770 5774 5778 5782 5785 5788 5791 5794 5797 5800 5803 5806 5808 5810 5812 5814 5815 5817 5819 5820 5821 5821 5822 5823 5823 5823 5824 5824 5824 5824 5823 5823 5823 5823 5822 5822 5821 5821 5820 5819
5752 5755 5758 5762 5766 5770 5774 5777 5781 5784 5787 5790 5793 5796 5798 5801 5803 5805 5807 5808 5810 5812 5813 5814 5815 5815 5816 5816 5817 5817 5817 5817 5817 5817 5817 5816 5816 5816 5815 5815 5814 5813 5813
5744 5747 5750 5754 5758 5762 5766 5769 5773 5776 5779 5782 5785 5788 5790 5793 5796 5798 5800 5801 5803 5804 5805 5806 5807 5808 5809 5809 5809 5810 5810 5810 5810 5810 5809 5809 5809 5808 5808 5807 5807 5806 5806
5736 5739 5742 5746 5750 5754 5758 5761 5765 5769 5772 5775 5778 5780 5783 5785 5788 5790 5792 5794 5795 5796 5797 5798 5799 5800 5801 5801 5802 5802 5802 5802 5802 5802 5802 5801 5801 5801 5800 5800 5799 5799 5798
5729 5732 5734 5738 5742 5746 5751 5754 5758 5761 5765 5767 5770 5773 5775 5777 5779 5782 5784 5785 5786 5787 5789 5790 5791 5792 5793 5793 5794 5794 5794 5794 5794 5794 5793 5793 5793 5792 5792 5791 5791 5790 5790
5722 5724 5727 5730 5734 5739 5743 5747 5750 5754 5757 5759 5762 5765 5767 5769 5771 5773 5775 5776 5777 5779 5780 5781 5782 5783 5784 5784 5785 5786 5786 5786 5785 5785 5785 5784 5784 5784 5783 5783 5782 5781 5781
5715 5717 5720 5723 5727 5731 5735 5739 5743 5746 5749 5752 5754 5757 5759 5761 5762 5764 5765 5767 5768 5769 5770 5771 5772 5773 5774 5775 5776 5776 5776 5776 5776 5776 5776 5775 5775 5775 5774 5774 5773 5772 5771
5709 5711 5714 5717 5720 5723 5728 5731 5734 5737 5741 5744 5746 5749 5750 5752 5753 5755 5756 5757 5758 5760 5761 5761 5763 5763 5764 5765 5766 5767 5767 5767 5767 5767 5767 5766 5766 5765 5765 5764 5763 5763 5762
5704 5706 5708 5711 5713 5717 5720 5723 5726 5730 5733 5736 5738 5740 5742 5743 5744 5746 5747 5748 5749 5750 5751 5752 5753 5754 5754 5755 5756 5757 5758 5758 5758 5757 5757 5757 5756 5755 5755 5754 5753 5752 5751
5698 5700 5703 5705 5707 5710 5713 5716 5719 5723 5725 5728 5730 5732 5733 5734 5735 5736 5738 5739 5739 5740 5741 5742 5743 5744 5744 5745 5745 5746 5747 5748 5749 5748 5747 5747 5746 5745 5745 5744 5743 5742 5741
5692 5694 5696 5698 5700 5703 5706 5708 5711 5715 5718 5720 5722 5723 5724 5725 5726 5727 5728 5729 5730 5730 5731 5732 5733 5734 5734 5735 5735 5736 5737 5737 5737 5738 5738 5737 5736 5735 5734 5733 5732 5731 5730
5687 5688 5690 5692 5694 5696 5699 5701 5704 5707 5710 5712 5713 5714 5715 5716 5717 5717 5718 5718 5719 5720 5721 5722 5722 5723 5724 5724 5725 5725 5725 5725 5725 5726 5727 5727 5725 5724 5723 5722 5721 5720 5719
5681 5683 5684 5686 5687 5689 5692 5694 5697 5699 5701 5703 5704 5705 5706 5707 5707 5708 5708 5708 5708 5709 5710 5711 5712 5713 5713 5714 5714 5714 5714 5714 5714 5714 5714 5715 5714 5713 5712 5711 5709 5708 5707